TimeCEST,TemperatureF,Dew PointF,Humidity,Sea Level PressureIn,VisibilityMPH,Wind Direction,Wind SpeedMPH,Gust SpeedMPH,PrecipitationIn,Events,Conditions,WindDirDegrees,DateUTC
12:00 AM,62.6,62.6,100,29.92,-9999.0,NW,8.1,-,N/A,,Clear,310,2013-08-28 22:00:00
12:30 AM,62.6,62.6,100,29.92,6.2,NW,8.1,-,N/A,,Scattered Clouds,320,2013-08-28 22:30:00
1:00 AM,62.6,60.8,94,29.95,6.2,NNW,8.1,-,N/A,,Mostly Cloudy,330,2013-08-28 23:00:00
1:30 AM,62.6,59.0,88,29.95,6.2,NNW,10.4,-,N/A,,Mostly Cloudy,340,2013-08-28 23:30:00
2:00 AM,62.6,59.0,88,29.95,6.2,NNW,11.5,-,N/A,,Mostly Cloudy,340,2013-08-29 00:00:00
2:30 AM,62.6,59.0,88,29.95,6.2,NNW,11.5,-,N/A,,Mostly Cloudy,340,2013-08-29 00:30:00
3:00 AM,62.6,59.0,88,29.95,6.2,NNW,10.4,-,N/A,,Mostly Cloudy,340,2013-08-29 01:00:00
3:30 AM,60.8,59.0,94,29.95,5.0,NNW,6.9,-,N/A,Rain,Rain,340,2013-08-29 01:30:00
4:00 AM,60.8,59.0,94,29.98,3.7,Variable,3.5,-,N/A,Rain,Light Rain,0,2013-08-29 02:00:00
4:30 AM,60.8,60.8,100,29.98,5.0,NW,6.9,-,N/A,,Mostly Cloudy,320,2013-08-29 02:30:00
5:00 AM,60.8,60.8,100,29.98,6.2,NW,8.1,-,N/A,,Mostly Cloudy,320,2013-08-29 03:00:00
5:30 AM,60.8,59.0,94,29.98,-9999.0,NW,8.1,-,N/A,,Clear,320,2013-08-29 03:30:00
6:00 AM,60.8,60.8,100,29.98,-9999.0,NW,8.1,-,N/A,,Clear,320,2013-08-29 04:00:00
6:30 AM,60.8,59.0,94,29.98,-9999.0,NW,6.9,-,N/A,,Clear,320,2013-08-29 04:30:00
7:00 AM,60.8,59.0,94,30.01,-9999.0,NW,5.8,-,N/A,,Clear,310,2013-08-29 05:00:00
7:30 AM,60.8,59.0,94,30.01,-9999.0,NW,5.8,-,N/A,,Clear,320,2013-08-29 05:30:00
8:00 AM,62.6,60.8,94,30.01,-9999.0,NW,4.6,-,N/A,,Clear,310,2013-08-29 06:00:00
8:30 AM,62.6,60.8,94,30.01,-9999.0,WNW,6.9,-,N/A,,Clear,300,2013-08-29 06:30:00
9:00 AM,64.4,59.0,83,30.01,-9999.0,NW,9.2,-,N/A,,Clear,310,2013-08-29 07:00:00
9:30 AM,64.4,59.0,83,30.04,-9999.0,NW,8.1,-,N/A,,Clear,320,2013-08-29 07:30:00
10:00 AM,64.4,59.0,83,30.04,-9999.0,NW,5.8,-,N/A,,Clear,310,2013-08-29 08:00:00
10:30 AM,69.8,59.0,68,30.04,-9999.0,NNW,8.1,-,N/A,,Clear,330,2013-08-29 08:30:00
11:00 AM,69.8,57.2,64,30.04,6.2,NW,6.9,-,N/A,,Scattered Clouds,320,2013-08-29 09:00:00
11:30 AM,71.6,53.6,53,30.04,6.2,NW,6.9,-,N/A,,Scattered Clouds,310,2013-08-29 09:30:00
12:00 PM,73.4,55.4,53,30.04,6.2,NW,8.1,-,N/A,,Scattered Clouds,310,2013-08-29 10:00:00
12:30 PM,73.4,51.8,47,30.04,6.2,NNW,9.2,-,N/A,,Scattered Clouds,340,2013-08-29 10:30:00
1:00 PM,75.2,51.8,44,30.04,-9999.0,North,9.2,-,N/A,,Clear,360,2013-08-29 11:00:00
1:30 PM,73.4,51.8,47,30.04,6.2,North,9.2,-,N/A,,Scattered Clouds,350,2013-08-29 11:30:00
2:00 PM,75.2,51.8,44,30.04,6.2,NNE,9.2,-,N/A,,Scattered Clouds,20,2013-08-29 12:00:00
2:30 PM,75.2,53.6,47,30.04,6.2,North,8.1,-,N/A,,Mostly Cloudy,350,2013-08-29 12:30:00
3:00 PM,75.2,53.6,47,30.04,6.2,North,6.9,-,N/A,,Mostly Cloudy,360,2013-08-29 13:00:00
3:30 PM,71.6,53.6,53,30.04,6.2,WNW,13.8,-,N/A,Rain,Light Rain Showers,300,2013-08-29 13:30:00
4:00 PM,71.6,55.4,57,30.04,6.2,NW,6.9,-,N/A,,Mostly Cloudy,320,2013-08-29 14:00:00
4:30 PM,75.2,51.8,44,30.01,-9999.0,WNW,6.9,-,N/A,,Clear,300,2013-08-29 14:30:00
5:00 PM,75.2,51.8,44,30.04,-9999.0,NW,5.8,-,N/A,,Clear,320,2013-08-29 15:00:00
5:30 PM,69.8,55.4,60,30.04,6.2,North,16.1,-,N/A,,Mostly Cloudy,10,2013-08-29 15:30:00
6:00 PM,66.2,59.0,78,30.04,6.2,ENE,15.0,-,N/A,Thunderstorm,Mostly Cloudy,70,2013-08-29 16:00:00
6:30 PM,64.4,59.0,83,30.06,3.1,Variable,10.4,-,N/A,Rain-Hail-Thunderstorm,Thunderstorms and Rain,0,2013-08-29 16:30:00
7:00 PM,62.6,60.8,94,30.06,4.3,East,10.4,-,N/A,Rain,Rain Showers,100,2013-08-29 17:00:00
7:30 PM,62.6,57.2,82,30.06,6.2,SSW,4.6,-,N/A,,Mostly Cloudy,200,2013-08-29 17:30:00
8:00 PM,62.6,60.8,94,30.09,6.2,Variable,2.3,-,N/A,,Mostly Cloudy,0,2013-08-29 18:00:00
8:30 PM,60.8,60.8,100,30.09,6.2,Variable,3.5,-,N/A,,Mostly Cloudy,0,2013-08-29 18:30:00
9:00 PM,62.6,60.8,94,30.09,4.3,Variable,3.5,-,N/A,Rain,Light Rain Showers,0,2013-08-29 19:00:00
9:30 PM,62.6,60.8,94,30.09,6.2,Variable,2.3,-,N/A,Rain,Light Rain Showers,0,2013-08-29 19:30:00
10:00 PM,60.8,60.8,100,30.09,6.2,Calm,Calm,-,N/A,,Mostly Cloudy,0,2013-08-29 20:00:00
10:30 PM,60.8,59.0,94,30.09,6.2,Variable,3.5,-,N/A,,Mostly Cloudy,0,2013-08-29 20:30:00
11:00 PM,60.8,60.8,100,30.09,6.2,North,4.6,-,N/A,,Mostly Cloudy,350,2013-08-29 21:00:00
11:30 PM,60.8,60.8,100,30.09,-9999.0,North,5.8,-,N/A,,Clear,350,2013-08-29 21:30:00